AirNav   Free Bose SoundSport
 
 982 users online  

F95 Calhoun County Airport
Blountstown, Florida, USA

GOING TO BLOUNTSTOWN?


FAA INFORMATION EFFECTIVE 28 MARCH 2019

Location

FAA Identifier: F95
Lat/Long: 30-29-13.9550N / 085-06-49.6650W
30-29.232583N / 085-06.827750W
30.4872097 / -85.1137958
(estimated)
Elevation: 122 ft. / 37 m (estimated)
Variation: 02W (1995)
From city: 5 miles NW of BLOUNTSTOWN, FL
Time zone: UTC -5 (UTC -6 during Standard Time)
Zip code: 32421

Airport Operations

Airport use: Open to the public
Activation date: 12/1996
Control tower: no
ARTCC: JACKSONVILLE CENTER
FSS: GAINESVILLE FLIGHT SERVICE STATION
NOTAMs facility: GNV (NOTAM-D service available)
Attendance: MON-FRI 0700-1500
Wind indicator: lighted
Segmented circle: yes
Lights: ACTVT MIRL RY 18/36 AND PAPI RYS 18 & 36 - CTAF.
Beacon: white (unlighted land airport)
Operates sunset to sunrise.

Airport Communications

CTAF: 122.9
WX AWOS-AV: 119.350 (850-674-1347)

Nearby radio navigation aids

VOR radial/distance  VOR name  Freq  Var
MAIr178/17.9MARIANNA VORTAC114.0000E
SZWr262/38.5SEMINOLE VORTAC117.5002E

 
NDB name  Hdg/Dist  Freq  Var  ID
SOYYA168/23.832902WSMY ... -- -.--
LYNNE078/35.927804WPFN .--. ..-. -.

Airport Services

Fuel available: 100LL JET-A
Parking: hangars and tiedowns
Airframe service: MAJOR
Powerplant service: MAJOR
Bottled oxygen: NONE
Bulk oxygen: NONE

Runway Information

Runway 18/36

Dimensions: 3100 x 60 ft. / 945 x 18 m
Surface: asphalt, in good condition
Runway edge lights: medium intensity
RUNWAY 18  RUNWAY 36
Latitude: 30-29.488333N30-28.976833N
Longitude: 085-06.829333W085-06.826167W
Elevation: 120.9 ft.118.1 ft.
Gradient: 0.1% DOWN0.1% UP
Traffic pattern: leftleft
Runway heading: 182 magnetic, 180 true002 magnetic, 360 true
Markings: nonprecision, in good conditionnonprecision, in good condition
Visual slope indicator: 2-light PAPI on left (3.00 degrees glide path)2-light PAPI on left (3.00 degrees glide path)
Obstructions: 68 ft. trees, 1547 ft. from runway, 40 ft. left of centerline, 20:1 slope to clear
APPROACH SLOPE 20:1 TO THE DSPLCD THLD DUE TO 88 FT TREE 185 FT L OF CNTRLN AND 1600 FT FRM RY END.
15 ft. road, 425 ft. from runway, 125 ft. right of centerline, 15:1 slope to clear

Airport Ownership and Management from official FAA records

Ownership: Publicly-owned
Owner: CALHOUN COUNTY
20589 CENTRAL AVENUE EAST
BLOUNTSTOWN, FL 32424
Phone 850-674-4545
Manager: ROBERT FLECK
16701 AGRIPARK ROAD
ALTHA, FL 32421
Phone (850) 674-2499
CELL: 850-643-7582

Airport Operational Statistics

Aircraft based on the field: 11
Single engine airplanes: 11
    
Aircraft operations: avg 38/week *
50% transient general aviation
50% local general aviation
* for 12-month period ending 05 March 2018

Instrument Procedures

There are no published instrument procedures at F95.

Some nearby airports with instrument procedures:

KMAI - Marianna Municipal Airport (21 nm N)
2J9 - Quincy Municipal Airport (30 nm E)
1J0 - Tri-County Airport (33 nm NW)
17J - Donalsonville Municipal Airport (33 nm N)
KPAM - Tyndall Air Force Base (35 nm SW)
 
Loc | Ops | Rwys | IFR | FBO | Links
Com | Nav | Svcs | Stats | Notes
Area around F95 (Calhoun County Airport)
 
Road maps at: MapQuest Bing Google
 
Aerial photo
WARNING: Photo may not be current or correct
Aerial photo of F95 (Calhoun County Airport)
Photo by Brian Christopher
Photo taken 08-Aug-2010

Do you have a better or more recent aerial photo of Calhoun County Airport that you would like to share? If so, please send us your photo.

 
Sectional chart

 
Airport distance calculator
Flying to Calhoun County Airport? Find the distance to fly.

From to F95

Sunrise and sunset
Times for 19-Apr-2019
 Local
(UTC-5)
 Zulu
(UTC)
Morning civil twilight05:4510:45
Sunrise06:1011:10
Sunset19:1000:10
Evening civil twilight19:3400:34

Current date and time
Zulu (UTC)  19-Apr-2019 23:47:33
Local (UTC-5)  19-Apr-2019 18:47:33
 
METAR
KMAI 
21nm N 
192253Z AUTO 29017G21KT 10SM BKN075 16/08 A2971 RMK AO2 PK WND 29027/2211 SLP059 T01610078
K2J9 
30nm E 
192335Z AUTO 29007G13KT 10SM BKN070 17/07 A2973 RMK AO2
K17J 
33nm N 
192335Z AUTO 29009KT 10SM SCT040 BKN050 OVC075 15/07 A2973 RMK AO2 T01480073
KPAM 
34nm SW 
192256Z AUTO 29018G28KT 10SM CLR 18/08 A2974 RMK AO2 PK WND 28028/49 SLP074 T01790082 $
KECP 
36nm W 
192310Z 25016G20KT 10SM SCT075 17/07 A2973 RMK AO2 T01720067
KBGE 
38nm NE 
192335Z 10SM 17/07 A2973 RMK AO2 PWINO
KTLH 
40nm E 
192253Z 26019G24KT 10SM SCT050 BKN250 19/08 A2970 RMK AO2 PK WND 26030/2216 SLP057 T01890083 $
TAF
KPAM 
34nm SW 
1919/2024 27015G25KT 9999 SCT025 BKN040 QNH2965INS TEMPO 1919/1922 28025G35KT BECMG 1923/1924 27012G18KT 9999 SCT030 QNH2975INS BECMG 2014/2015 30020G30KT 9999 SKC QNH2990INS TX19/1919Z TN12/2012Z
KECP 
36nm W 
191737Z 1918/2018 27022G28KT P6SM BKN035 FM200100 30009KT P6SM SCT250 FM201500 28012G22KT P6SM SCT250
KTLH 
40nm E 
191737Z 1918/2018 27020G28KT P6SM BKN030 FM200100 30007KT P6SM BKN250 FM201500 28015G25KT P6SM SCT250
NOTAMs
Click for the latest NOTAMs
NOTAMs are issued by the DoD/FAA and will open in a separate window not controlled by AirNav.

 

 
 

FBO, Fuel Providers, and Aircraft Ground Support

  
 Business Name 
 
 Contact 
 
 Services / Description 
 
Fuel Prices
 
Comments
  
Calhoun County Airport 850-674-2499
no information available

If you are affiliated with Calhoun County Airport and would like to show here your services, contact info, web link, logo, and more, click here
100LL Jet A
SS $4.24 $3.75 
 Updated 06-Sep-2018
 
   1 read write
SS=Self service
Update Fuel Prices
 

Would you like to see your business listed on this page?

 If your business provides an interesting product or service to pilots, flight crews, aircraft, or users of the Calhoun County Airport, you should consider listing it here.  To start the listing process, click on the button below
 
Add a business
 

Other Pages about Calhoun County Airport

Update a link
 
Copyright © AirNav, LLC. All rights reserved. Privacy Policy  Contact